This demonstration page uses our WeatherBlox Daily Observations layout. Learn more.

Left ArrowRight Arrow

36.17497, -115.13722

Hourly Observations for July 16, 2021

Temp ( °F °C ) Dew Point ( °F °C ) Humidity (%) Winds ( mph kmh ) Pressure ( in mb ) Visibility ( mi km ) Precip ( " mm )
12:53 am 00:53 Clear 97 36.1 45 7.2 17 17 SW 7 11 29.75 1007 10 16 0.00 0.00
1:30 am 01:30 Clear 93 33.9 56 13.3 29 29 ENE 16 26 29.65 1004 10 16 0.00 0.00
1:53 am 01:53 Clear 92 33.3 56 13.3 30 30 E 22 35 29.79 1009 10 16 0.00 0.00
2:53 am 02:53 Clear 89 31.7 57 13.9 34 34 E 14 22 29.80 1009 10 16 0.00 0.00
3:53 am 03:53 Clear 87 30.6 56 13.3 35 35 ENE 10 17 29.81 1010 10 16 0.00 0.00
4:53 am 04:53 Clear 87 30.6 55 12.8 34 34 ESE 3 6 29.82 1010 10 16 0.00 0.00
5:53 am 05:53 Sunny 86 30 56 13.3 36 36 ESE 6 9 29.83 1010 10 16 0.00 0.00
6:53 am 06:53 Sunny 86 30 57 13.9 37 37 ESE 5 7 29.85 1011 10 16 0.00 0.00
7:53 am 07:53 Sunny 89 31.7 57 13.9 34 34 E 8 13 29.85 1011 10 16 0.00 0.00
8:53 am 08:53 Sunny 91 32.8 58 14.4 33 33 ESE 8 13 29.86 1011 10 16 0.00 0.00
9:53 am 09:53 Sunny 94 34.4 57 13.9 29 29 ESE 9 15 29.85 1011 10 16 0.00 0.00
10:53 am 10:53 Sunny 97 36.1 53 11.7 23 23 S 7 11 29.84 1011 10 16 0.00 0.00
11:53 am 11:53 Sunny 101 38.3 53 11.7 20 20 SE 15 24 29.81 1010 10 16 0.00 0.00
12:53 pm 12:53 Sunny 105 40.6 45 7.2 13 13 S 14 22 29.78 1008 10 16 0.00 0.00
1:53 pm 13:53 Sunny 107 41.7 45 7.2 12 12 S 17 28 29.75 1008 10 16 0.00 0.00
2:53 pm 14:53 Sunny 107 41.7 45 7.2 12 12 S 16 26 29.72 1007 10 16 0.00 0.00
3:53 pm 15:53 Sunny 108 42.2 42 5.6 11 11 SSW 16 26 29.69 1006 10 16 0.00 0.00
4:53 pm 16:53 Sunny 108 42.2 41 5 10 10 S 15 24 29.68 1005 10 16 0.00 0.00
5:53 pm 17:53 Sunny 107 41.7 40 4.4 10 10 SSW 17 28 29.66 1004 10 16 0.00 0.00
6:53 pm 18:53 Sunny 106 41.1 40 4.4 10 10 SW 15 24 29.67 1005 10 16 0.00 0.00
7:53 pm 19:53 Sunny 104 40 40 4.4 11 11 SSW 10 17 29.69 1005 10 16 0.00 0.00
8:53 pm 20:53 Clear 102 38.9 41 5 12 12 S 12 19 29.70 1006 10 16 0.00 0.00
9:53 pm 21:53 Clear 100 37.8 43 6.1 14 14 S 10 17 29.72 1007 10 16 0.00 0.00
10:53 pm 22:53 Clear 99 37.2 43 6.1 15 15 SSW 13 20 29.73 1007 10 16 0.00 0.00
11:53 pm 23:53 Clear 97 36.1 42 5.6 15 15 SSW 10 17 29.74 1007 10 16 0.00 0.00

Powered by AerisWeather